Quincy, IL

8:50 PM CST on November 12, 2019 (GMT -0600)
Quincy Regional-Baldwin

Weather History for KUIN - September, 2019

Change the Weather History Date:

Tuesday, September 24, 2019

  Actual Average Record
Temperature  
Mean Temperature 69 °F 63 °F  
Max Temperature 79 °F 74 °F 94 °F (1935)
Min Temperature 59 °F 52 °F 33 °F (1989)
Degree Days  
Heating Degree Days 0 5  
Month to date heating degree days 0 49  
Since 1 July heating degree days 2 54  
Cooling Degree Days 4 2  
Month to date cooling degree days 212 111  
Year to date cooling degree days 1269 1064  
Growing Degree Days 19 (Base 50)    
Moisture  
Dew Point 53 °F    
Average Humidity 60    
Maximum Humidity 80    
Minimum Humidity 39    
Precipitation  
Precipitation 0.00 in 0.12 in 4.35 in (1904)
Month to date precipitation 2.65 2.65  
Year to date precipitation 33.68 28.40  
Sea Level Pressure  
Sea Level Pressure 29.92 in    
Wind  
Wind Speed 7 mph ()    
Max Wind Speed 18 mph    
Max Gust Speed 28 mph    
Visibility 10.0 miles    
Events      
T = Trace of Precipitation, MM = Missing Value Source: Averaged Metar Reports

Daily Weather History Graph

Daily Weather History Graph

Search for Another Location

Airport or City:

Astronomy

Sep. 24, 2019 Rise Set
Actual Time 6:54 AM CDT 6:58 PM CDT
Civil Twilight 6:27 AM CDT 7:25 PM CDT
Nautical Twilight 5:55 AM CDT 7:57 PM CDT
Astronomical Twilight 5:23 AM CDT 8:29 PM CDT
Moon 1:39 AM CDT (9/24) 4:44 PM CDT (9/24)
Length of Visible Light 12h 58m
Length of Day
12h 04m
Waning Crescent, 23% of the Moon is Illuminated
Sep 24
Waning Crescent
Sep 28
New
Oct 5
First Quarter
Oct 13
Full
Oct 21
Last Quarter

Hourly Weather History & Observations

Time (CDT) Temp. Dew Point Humidity Pressure Visibility Wind Dir Wind Speed Gust Speed Precip Events Conditions
12:54 AM 63.0 °F 53.1 °F 70% 30.01 in 10.0 mi SSE 4.6 mph - N/A   Clear
1:54 AM 63.0 °F 53.1 °F 70% 30.01 in 10.0 mi South 4.6 mph - N/A   Clear
2:54 AM 62.1 °F 53.1 °F 72% 30.01 in 10.0 mi South 4.6 mph - N/A   Clear
3:54 AM 62.1 °F 53.1 °F 72% 30.00 in 10.0 mi South 4.6 mph - N/A   Clear
4:54 AM 60.1 °F 54.0 °F 80% 30.01 in 10.0 mi South 5.8 mph - N/A   Clear
5:54 AM 60.1 °F 53.1 °F 78% 30.01 in 10.0 mi SSE 5.8 mph - N/A   Clear
6:54 AM 60.1 °F 53.1 °F 78% 30.01 in 10.0 mi SSE 6.9 mph - N/A   Clear
7:54 AM 61.0 °F 54.0 °F 78% 30.01 in 10.0 mi SSE 5.8 mph - N/A   Clear
8:54 AM 64.9 °F 55.9 °F 73% 30.00 in 10.0 mi South 6.9 mph - N/A   Clear
9:54 AM 69.1 °F 55.9 °F 63% 29.99 in 10.0 mi South 10.4 mph - N/A   Clear
10:54 AM 73.9 °F 55.0 °F 52% 29.98 in 10.0 mi South 10.4 mph - N/A   Clear
11:54 AM 75.9 °F 55.0 °F 48% 29.96 in 10.0 mi South 15.0 mph 25.3 mph N/A   Clear
12:54 PM 78.1 °F 51.1 °F 39% 29.95 in 10.0 mi South 17.3 mph 25.3 mph N/A   Clear
1:54 PM 79.0 °F 53.1 °F 40% 29.92 in 10.0 mi South 12.7 mph - N/A   Clear
2:54 PM 78.1 °F 51.1 °F 39% 29.89 in 10.0 mi South 15.0 mph 23.0 mph N/A   Clear
3:54 PM 78.1 °F 51.1 °F 39% 29.87 in 10.0 mi South 11.5 mph - N/A   Clear
4:54 PM 78.1 °F 52.0 °F 40% 29.85 in 10.0 mi South 11.5 mph - N/A   Clear
5:54 PM 75.9 °F 52.0 °F 43% 29.83 in 10.0 mi South 10.4 mph - N/A   Clear
6:54 PM 71.1 °F 53.1 °F 53% 29.82 in 10.0 mi South 10.4 mph - N/A   Clear
7:54 PM 68.0 °F 54.0 °F 61% 29.83 in 10.0 mi South 8.1 mph - N/A   Clear
8:54 PM 66.9 °F 53.1 °F 61% 29.81 in 10.0 mi South 11.5 mph - N/A   Clear
9:54 PM 66.9 °F 54.0 °F 63% 29.80 in 10.0 mi South 13.8 mph 23.0 mph N/A   Mostly Cloudy
10:54 PM 68.0 °F 53.1 °F 59% 29.78 in 9.0 mi South 16.1 mph 27.6 mph N/A   Clear
11:54 PM 66.0 °F 53.1 °F 63% 29.78 in 10.0 mi South 12.7 mph - N/A   Clear